Globalstar M059

operational
NORAD ID: 25944 Int'l Des: 1999-058 Owner: GLOBT Country: US Constellation: globalstar
LEOCIRCULAR

关于 Globalstar M059

正在加载描述...

实时位置

正在加载3D地球...

即将过境

高度历史

Altitude vs Time

uPlot chart will show altitude changes over time

两行轨道根数

1 25944U 99058B 26063.38135933 -.00000093 00000-0 -89724-4 0 9995
2 25944 51.9998 223.2537 0001315 114.4898 259.0179 11.99994974605282
Epoch: Mar 4, 2026 • Age: 17 hours

当前状态

高度 1695.7 km
速度 7.03 km/s
星下点 -41.49°S, 125.12°E
发射日期 Oct 18, 1999
运行时间 26.3 years
类型 communications

技术详情

分类 Payload
质量 450.00 kg
干质量 380.00 kg
总质量 450.00 kg
长度 1.50 m
直径 0.60 m
跨度 12.00 m
形状 Box + 2 Pan
制造商 LOR
平台类型 LS-400
阶段状态 In Orbit
所有者/国家 GLOBT/US

大型星座

Loading constellations...